Zurück zum Katalog

COSMOS 2251 DEB

AktivLEO
NORAD 34314·DEBRIS·🇷🇺 Russia

Gestartet Jun 16, 1993 von Plesetsk Cosmodrome

Loading…

Nächste Überflüge (nächste 24 Stunden)

TLE

AktuellSource: Space-Track

Epoche: Sep 14, 2026, 14:24 UTC

1 34314U 93036NL  26257.60026437  .00000606  00000-0  29252-3 0  9991
2 34314  74.0062 175.8310 0105146 219.7089 196.4822 14.17950594905678

Verfolge COSMOS 2251 DEB in Echtzeit mit AllMySat

Download on the App Store